TimeEDT,TemperatureF,Dew PointF,Humidity,Sea Level PressureIn,VisibilityMPH,Wind Direction,Wind SpeedMPH,Gust SpeedMPH,PrecipitationIn,Events,Conditions,WindDirDegrees,DateUTC
12:00 AM,55.8,52.5,89,29.90,-9999.0,SSW,8.1,-,N/A,,Unknown,200,2012-10-14 04:00:00
1:00 AM,57.2,54.3,90,29.89,-9999.0,SSW,8.1,-,N/A,,Unknown,210,2012-10-14 05:00:00
2:00 AM,59,56,86,29.87,,SSW,10.4,,,,,210,2012-10-14 06:00:00
2:00 AM,58.6,55.9,91,29.87,-9999.0,SSW,10.4,-,0.02,,Unknown,210,2012-10-14 06:00:00
3:00 AM,60.8,57.0,87,29.87,-9999.0,SW,9.2,19.6,N/A,,Unknown,230,2012-10-14 07:00:00
4:00 AM,60.6,57.6,90,29.86,-9999.0,SW,8.1,-,0.05,,Unknown,230,2012-10-14 08:00:00
5:00 AM,61.7,59.0,91,29.86,-9999.0,SW,6.9,-,0.05,,Unknown,230,2012-10-14 09:00:00
6:00 AM,62.6,59.4,89,29.86,-9999.0,SW,8.1,-,N/A,,Unknown,220,2012-10-14 10:00:00
7:00 AM,61.9,58.5,89,29.87,-9999.0,SW,8.1,-,N/A,,Unknown,220,2012-10-14 11:00:00
8:00 AM,62,58,82,29.87,,SSW,9.2,,,,,210,2012-10-14 12:00:00
8:00 AM,62.1,57.9,86,29.87,-9999.0,SSW,9.2,-,N/A,,Unknown,210,2012-10-14 12:00:00
9:00 AM,62.8,58.3,85,29.87,-9999.0,SSW,9.2,-,N/A,,Unknown,210,2012-10-14 13:00:00
10:00 AM,64.4,58.5,81,29.86,-9999.0,SSW,10.4,17.3,N/A,,Unknown,210,2012-10-14 14:00:00
11:00 AM,65.7,57.6,75,29.83,-9999.0,SSW,11.5,20.7,N/A,,Unknown,200,2012-10-14 15:00:00
12:00 PM,66.2,56.8,72,29.81,-9999.0,SSW,12.7,27.6,N/A,,Unknown,200,2012-10-14 16:00:00
2:00 PM,69,57,56,29.74,,South,12.7,,,,,190,2012-10-14 18:00:00
2:00 PM,68.5,56.8,66,29.74,-9999.0,South,12.7,23.0,N/A,,Unknown,190,2012-10-14 18:00:00
3:00 PM,72.1,57.9,61,29.70,-9999.0,South,13.8,26.5,N/A,,Unknown,190,2012-10-14 19:00:00
4:00 PM,68.9,55.9,63,29.69,-9999.0,SSW,11.5,18.4,N/A,,Unknown,200,2012-10-14 20:00:00
6:00 PM,63.3,59.4,87,29.67,-9999.0,SSW,11.5,20.7,0.04,,Unknown,210,2012-10-14 22:00:00
7:00 PM,64.0,59.7,86,29.63,-9999.0,South,11.5,18.4,0.01,,Unknown,190,2012-10-14 23:00:00
8:00 PM,65,60,77,29.60,,South,12.7,,,,,190,2012-10-15 00:00:00
8:00 PM,64.6,59.5,84,29.60,-9999.0,South,12.7,19.6,0.01,,Unknown,190,2012-10-15 00:00:00
10:00 PM,65.3,57.2,75,29.54,-9999.0,South,12.7,20.7,N/A,,Unknown,190,2012-10-15 02:00:00
11:00 PM,66.7,56.3,69,29.51,-9999.0,South,15.0,25.3,N/A,,Unknown,190,2012-10-15 03:00:00